Regional Weather Roundup
Issued by NWS Sioux Falls, SD

Home | Current Version | Previous Version | Text Only | Print | Product List | Glossary On
Versions: 1 2 3 4 5 6 7 8 9 10 11 12 13 14 15 16 17 18 19 20 21 22 23 24 25 26 27 28 29 30 31 32 33 34 35 36 37 38 39 40 41 42 43 44 45 46 47 48 49 50
000
ASUS43 KFSD 010802
RWRFSD

WEATHER ROUNDUP FOR SE SOUTH DAKOTA/SW MINNESOTA/NW IOWA
NATIONAL WEATHER SERVICE SIOUX FALLS SD
300 AM CDT TUE SEP 01 2015

NOTE: "FAIR" INDICATES FEW OR NO CLOUDS BELOW 12,000 FEET WITH NO
SIGNIFICANT WEATHER AND OR OBSTRUCTIONS TO VISIBILITY.


SDZ038>040-050-052>070-010900-
SOUTHEAST SOUTH DAKOTA

CITY           SKY/WX    TMP DP  RH WIND       PRES   REMARKS
BROOKINGS      MOCLDY    70  64  83 SE5       29.91F
CHAMBERLAIN    CLOUDY    62  62  98 CALM      29.91S
HURON          CLOUDY    65  64  97 CALM      29.87F
MADISON        FAIR      68  68 100 S8        29.91S
MITCHELL       CLOUDY    67  65  93 CALM      29.88F
SIOUX FALLS    PTCLDY    70  67  90 S3        29.90F
WINNER         LGT RAIN  66  61  84 NW3       29.92F
YANKTON        PTCLDY    66  64  94 E6        29.87F
$$

MNZ071-072-080-081-089-090-097-098-010900-
SOUTHWEST MINNESOTA

CITY           SKY/WX    TMP DP  RH WIND       PRES   REMARKS
FAIRMONT       CLEAR     63  57  82 S5        29.93S
JACKSON        PTCLDY    68  64  88 S6        29.94S
LUVERNE        PTCLDY    68  64  88 CALM      29.92S FOG
MARSHALL       MOCLDY    70  64  83 CALM      29.90F
MONTEVIDEO     MOCLDY    70  66  88 CALM      29.90S
PIPESTONE      MOCLDY    70  66  88 S5        29.92F
REDWOOD FALLS  PTCLDY    69  67  93 S6        29.89F
TRACY          PTCLDY    71  67  88 SW9       29.90F
WINDOM         PTCLDY    68  64  88 CALM      29.93S
WORTHINGTON    PTCLDY    66  63  88 S5        29.93S
$$

IAZ001>003-012>014-020>022-031-032-NEZ013-014-SDZ071-010900-
NORTHWEST IOWA

CITY           SKY/WX    TMP DP  RH WIND       PRES   REMARKS
DENISON        CLEAR     70  68  94 CALM      29.92S
ESTHERVILLE    CLEAR     62  61  96 S3        29.93F FOG
SIOUX CITY     CLEAR     68  64  87 E9        29.90S
SPENCER        CLEAR     64  61  90 CALM      29.93F
$$

ABBREVIATIONS USED IN REMARKS
   TC - TEMPERATURE IN CELSIUS
  WCI - WIND CHILL INDEX
   HX - HEAT INDEX
  VSB - VISIBILITY




USA.gov is the U.S. government's official web portal to all federal, state and local government web resources and services.